Weather Roundup
Issued by NWS

Home | Current Version | Previous Version | Text Only | Print | Product List | Glossary On
Versions: 1 2 3 4 5 6 7 8 9 10 11 12 13 14 15 16 17 18 19 20 21 22 23 24 25 26 27 28 29 30 31 32 33 34 35 36 37 38 39 40 41 42 43 44 45 46 47 48 49 50
218
NZUS93 KARX 250810
HRRWXR

CURRENT HOURLY OBSERVATIONS ACROSS
MUCH OF THE UPPER MISSISSIPPI VALLEY
NATIONAL WEATHER SERVICE LA CROSSE WI
300 AM CDT THU MAY 25 2017


...SOUTHEAST MINNESOTA...


CITY           SKY/WX    TMP DP  RH WIND       PRES   REMARKS
ROCHESTER      CLEAR     49  48  97 SE3       29.70S
ROCHESTER/MAYO NOT AVBL
WINONA         PTCLDY    48  46  93 CALM      29.71
AUSTIN         FOG       48  46  93 CALM      29.69  VSB 1
ALBERT LEA     CLEAR     46  46 100 CALM      29.68
DODGE CENTER   CLEAR     48  46  93 CALM      29.69
PRESTON        CLOUDY    50  47  90 E6        29.69
OWATONNA       CLEAR     46  45  93 CALM      29.69
FARIBAULT      CLEAR     46  45  93 CALM      29.69
$$

...ELSEWHERE IN MINNESOTA...


CITY           SKY/WX    TMP DP  RH WIND       PRES   REMARKS
MINNEAPOLIS    CLEAR     52  46  80 E7        29.69F
INTNL FALLS    CLEAR     41  36  82 E6        29.72S
DULUTH         CLEAR     43  41  93 E8        29.72F
RED WING       CLEAR     48  46  93 CALM      29.69
REDWOOD FALLS  CLEAR     49  44  83 SE6       29.66S
MANKATO        NOT AVBL
WORTHINGTON    CLEAR     49  44  83 SE8       29.67S
FAIRMONT       CLEAR     48  46  93 SE3       29.67F
$$

...SOUTHWEST WISCONSIN...


CITY           SKY/WX    TMP DP  RH WIND       PRES   REMARKS
LA CROSSE      PTCLDY    49  47  93 CALM      29.69S
PRAIRIE DU CHI CLOUDY    49  47  94 CALM      29.68S
BOSCOBEL       CLOUDY    55  49  80 N5        29.68S
LONE ROCK      CLOUDY    54  48  80 NW5       29.66F
PLATTEVILLE    MOCLDY    51  51  99 N8        29.66S
FORT MC COY    MOCLDY    47  47 100 CALM      29.70S
CAMP DOUGLAS   CLOUDY    51  51  99 NW3       29.69S
MAUSTON-NEW LI CLOUDY    53  50  87 N3        29.68S
VIROQUA        CLOUDY    51  49  91 MISG      29.68S
WIS DELLS      CLOUDY    53  48  84 NE7       29.67S
$$

...ELSEWHERE IN WISCONSIN...


CITY           SKY/WX    TMP DP  RH WIND       PRES   REMARKS
MILWAUKEE      MOCLDY    54  50  86 N15       29.58F
MADISON        CLOUDY    53  50  89 N12       29.64S
GREEN BAY      CLEAR     49  49 100 N7        29.65F
EAU CLAIRE     CLOUDY    53  50  89 CALM      29.70S
BLACK RVR FLS  FOG       39  39 100 CALM      29.70S VSB<1/4
MEDFORD        CLEAR     46  45  97 NE3       29.71S
WAUSAU         PTCLDY    49  47  93 NW5       29.69S
WIS RAPIDS     PTCLDY    50  47  89 NE6       29.70S
MARSHFIELD     CLEAR     46  44  93 N6        29.69S
RICE LAKE      CLOUDY    51  47  84 CALM      29.73S
$$

...NORTHEAST IOWA...


CITY           SKY/WX    TMP DP  RH WIND       PRES   REMARKS
WATERLOO       FOG       43  42  97 CALM      29.67F VSB 1
DUBUQUE        PTCLDY    49  48  97 N9        29.66S
DECORAH        CLOUDY    48  48 100 CALM      29.68S
MASON CITY     FOG       44  44 100 CALM      29.70S VSB 1/4
CHARLES CITY   CLEAR     48  48 100 NE6       29.69S
OELWEIN        CLEAR     46  46 100 NE3       29.68S
$$

...ELSEWHERE IN IOWA...


CITY           SKY/WX    TMP DP  RH WIND       PRES   REMARKS
DES MOINES     CLEAR     49  46  90 CALM      29.68S
IOWA CITY      CLEAR     53  49  86 N6        29.67S
FORT DODGE     CLEAR     45  43  93 CALM      29.67F
MARSHALLTOWN   CLEAR     46  46 100 CALM      29.67S
CEDAR RAPIDS   CLEAR     48  48 100 N7        29.66S
$$

...NORTHERN ILLINOIS...


CITY           SKY/WX    TMP DP  RH WIND       PRES   REMARKS
CHICAGO-OHARE  PTCLDY    55  50  83 N12       29.53F
CHICAGO-MIDWAY MOCLDY    55  51  86 N10       29.53S
MOLINE         PTCLDY    54  49  83 NW5       29.64R
ROCKFORD       CLOUDY    55  51  86 N12       29.62F
PEORIA         MOCLDY    54  52  93 N7        29.60S
$$

NOTE: "FAIR" INDICATES FEW OR NO CLOUDS BELOW 12,000 FEET WITH NO
SIGNIFICANT WEATHER AND/OR OBSTRUCTIONS TO VISIBILITY. WIND
SPEEDS ARE IN MILES-PER-HOUR.




USA.gov is the U.S. government's official web portal to all federal, state and local government web resources and services.